Location: Amb?puram
(16.5660°N, 80.6281°E)
Time: 13:23:46
(UTC+00:00)

Daily predictions for brighter satellites

Satellite Brightness Start Highest point End
(mag) Time Altitude Azimuth Time Altitude Azimuth Time Altitude Azimuth
Cosmos 1503 Rocket 4.2 12:58:05 10° NNW 13:03:25 81° WSW 13:08:46 10° S
Cosmos 2100 Rocket 4.4 12:58:43 10° S 13:05:02 72° W 13:11:23 10° N
TRACE 4.4 13:02:05 10° NNE 13:05:23 56° E 13:08:40 10° S
Cosmos 1818 3.5 13:00:06 10° SSW 13:05:28 75° ESE 13:10:54 10° NNE
YAOGAN 1 3.5 13:01:51 10° SE 13:05:29 28° ENE 13:09:07 10° NNE
Meteor 1-31 Rocket 2.6 13:03:14 10° SSE 13:06:56 85° E 13:10:36 10° N
Cosmos 2263 Rocket 3.7 13:06:56 10° NW 13:12:14 42° WSW 13:17:32 10° S
Hubble Space Telescope 2.2 13:10:16 10° NW 13:13:32 24° NNE 13:16:47 10° ENE
Meteor 1-27 Rocket 4.2 13:10:21 10° NNE 13:15:33 40° E 13:20:51 10° SSE
Cosmos 841 Rocket 3.6 13:10:32 10° SSW 13:15:45 83° WNW 13:20:58 10° NNE
CZ-2C R/B 2.8 13:15:26 10° S 13:19:00 71° WSW 13:22:31 10° NNW
Cosmos 2016 Rocket 3.9 13:14:35 10° S 13:20:43 82° E 13:26:48 10° N
Cosmos 1626 3.5 13:19:54 10° NE 13:21:07 12° E 13:21:07 12° E
Cosmos 2292 Rocket 4.3 13:21:30 10° NE 13:23:30 15° E 13:23:59 15° E
Cosmos 990 Rocket 4.2 13:22:59 10° N 13:28:00 49° ENE 13:32:57 10° SSE
Cosmos 1844 4.4 13:26:59 10° N 13:31:54 32° ENE 13:36:02 14° SE
Aureole 1 Rocket 4.3 13:32:43 10° NE 13:34:03 14° ENE 13:34:03 14° ENE
Cosmos 1726 1.9 13:32:35 10° SSE 13:35:09 34° E 13:37:45 10° NNE
SPOT 1/Viking Rocket 4.3 13:34:00 10° SE 13:38:32 32° ENE 13:43:04 10° NNE
Cosmos 1743 2.4 13:38:47 10° S 13:42:19 64° E 13:45:51 10° NNE
USA 215 3.3 13:37:52 10° NE 13:44:17 60° SE 13:50:42 10° SSW
H-II Stage 2 3.3 13:41:34 10° W 13:44:48 53° SSW 13:54:46 15° SE
Resurs 1-3 3.9 13:41:43 13° SE 13:45:13 41° ENE 13:49:16 10° N
Landsat 7 4.0 13:40:41 10° S 13:45:21 71° WSW 13:50:02 10° NNW
Helios 1B rocket 3.1 13:45:07 10° S 13:48:53 53° W 13:52:39 10° NNW
Aurora 2 Rocket 3.4 13:45:59 10° NW 13:49:49 40° NNE 13:52:19 24° ENE
Iridium 4 Rocket 3.9 13:47:17 10° NNE 13:50:20 27° ENE 13:50:20 27° ENE
Cosmos 2237 Rocket 3.5 13:47:47 10° SSE 13:50:11 20° SE 13:50:11 20° SE
ISS -3.7 13:49:12 10° SW 13:52:31 77° NW 13:54:40 20° NNE
Cosmos 1814 Rocket 3.9 13:56:17 10° S 14:01:37 77° ESE 14:06:54 10° NNE
Resurs 01 Rocket 3.6 14:04:35 15° NE 14:04:35 15° NE 14:05:43 10° NNE
Cosmos 1898 Rocket 3.8 13:58:49 10° N 14:03:49 44° ENE 14:04:48 39° ESE
ATLAS 3B R/B 3.3 13:57:31 10° N 14:04:47 42° ENE 14:07:19 33° ESE
Meteor PRIRODA 4.1 14:15:02 45° NNW 14:15:02 45° NNW 14:17:26 10° N
Cosmos 1151 Rocket 2.8 14:11:35 10° N 14:15:48 81° E 14:16:18 68° SSE
Intelsat 5-1 Rocket 2.0 14:17:06 10° WSW 14:20:16 87° NNW 14:21:02 62° ENE
Cosmos 1980 3.7 14:15:15 10° S 14:26:25 - NNE 14:20:15 53° SE
CZ-4B R/B 3.4 14:18:12 23° S 14:21:12 74° WSW 14:25:54 10° NNW
Timation 2 Rocket 4.4 14:19:13 10° N 14:25:12 44° ENE 14:25:12 44° ENE
Cosmos 1891 Rocket 4.2 14:20:01 10° S 14:26:00 80° E 14:32:03 10° N
GEOS 3 Rocket 4.2 14:32:47 44° NNE 14:32:47 44° NNE 14:36:54 10° NNW
Cosmos 1766 Rocket 4.3 14:28:11 10° SSW 14:32:22 51° W 14:36:34 10° N
Mugunghwa Rocket 4.2 14:28:18 10° WNW 14:34:27 54° NNE 14:35:11 51° NE
SJ-6B 4.0 14:36:28 37° W 14:36:28 37° W 14:39:47 10° NNW
Palapa 6 Rocket 4.5 14:29:03 10° W 14:36:33 59° N 14:38:19 46° NE
H-2A R/B 3.2 14:14:03 10° WSW 14:37:34 71° NNW 14:38:55 51° NE
Cosmos 1844 Rocket 3.9 14:33:24 10° NW 14:38:39 40° WSW 14:42:41 16° SSW
Cosmos 1513 Rocket 4.5 14:38:59 10° S 14:45:02 74° W 14:51:04 10° N
Cosmos 1464 Rocket 4.2 14:49:37 58° NNE 14:49:37 58° NNE 14:54:34 10° N
CZ-4 R/B 3.8 14:55:30 18° NW 14:55:30 18° NW 14:56:41 10° NNW
PAYLOAD B 4.5 14:53:27 66° W 14:53:27 66° W 14:58:53 10° NNW
Hubble Space Telescope 3.0 14:50:16 10° WNW 14:51:47 22° WNW 14:51:47 22° WNW
CZ-4B R/B 4.4 15:09:30 37° NNW 15:09:30 37° NNW 15:12:47 10° NNW
ACS3 Solar Sail 3.6 15:34:34 25° NNW 15:34:34 25° NNW 15:36:59 10° NNW
ATLAS CENTAUR R/B 4.1 15:28:07 10° NW 15:33:29 57° NW 15:33:29 57° NW
ATLAS 3B R/B 4.5 15:49:02 10° NW 15:54:37 26° WSW 15:54:37 26° WSW
H-2A R/B 4.4 21:34:14 10° NE 21:38:02 19° E 21:38:23 19° ESE
CENTAUR R/B 4.2 21:48:04 20° NNE 21:48:04 20° NNE 21:49:51 10° NNE
Atlas Centaur 2 3.7 21:48:40 33° ENE 21:48:40 33° ENE 21:52:11 10° ENE
IUS-13 SRM-1 4.5 22:02:38 58° S 22:03:43 63° SE 22:39:13 10° ENE
CZ-3B R/B 4.5 22:12:14 16° ESE 22:12:14 16° ESE 22:13:13 10° SE
IRS-1D 4.1 22:14:01 10° NNE 22:18:11 55° NNE 22:18:11 55° NNE
DELTA-4 R/B 4.1 22:21:56 31° SE 22:21:56 31° SE 22:25:22 10° ESE
Cosmos 676 Rocket 3.9 22:31:19 77° NE 22:31:19 77° NE 22:36:06 10° NNE
SJ 16-02 4.3 22:38:12 10° SE 22:40:23 14° E 22:42:33 10° ENE
Cosmos 1339 Rocket 4.3 22:39:49 59° SW 22:40:47 68° W 22:46:48 10° N
SL-08 R/B 4.5 22:35:23 10° N 22:41:45 85° E 22:48:01 10° S
NOSS 3-2 (C) 3.4 22:40:43 35° S 22:42:28 54° ESE 22:47:25 10° NE
Ariane H10+ 4.4 22:44:39 13° SE 22:44:39 13° SE 22:45:09 10° SE
ATLAS 5 CENTAUR R/B 2.2 22:48:48 33° NNE 22:48:48 33° NNE 22:50:40 10° NNE
Cosmos 1939 Rocket 3.5 22:44:46 10° NNE 22:48:39 54° E 22:50:43 25° SSE
Cosmos 1821 Rocket 4.4 22:44:31 10° NNW 22:48:56 39° WNW 22:48:56 39° WNW
Cosmos 2360 Rocket 4.5 22:46:23 10° NNE 22:50:50 24° ENE 22:55:17 10° ESE
Cosmos 1626 Rocket 3.6 22:47:43 10° N 22:51:22 58° NW 22:51:22 58° NW
DMSP B5D2-2 3.9 22:48:58 10° S 22:54:05 62° WSW 22:59:12 10° NNW
Cosmos 1484 Rocket 3.1 22:50:52 10° NNE 22:54:34 62° ESE 22:56:19 29° S
BREEZE-M DEB (TANK) 4.2 22:54:46 20° S 22:56:54 29° SSE 22:59:00 10° E
ATLAS 2AS CENTAUR R/B 4.3 23:01:52 14° SSW 23:01:52 14° SSW 23:02:56 10° SSW
FUSE 4.1 22:56:07 43° SW 22:57:39 61° SSE 23:02:53 10° ENE
Cosmos 2322 Rocket 3.5 22:54:40 10° N 22:59:57 41° ENE 23:05:12 10° SE
Cosmos 1666 3.3 22:56:47 10° N 22:58:55 38° N 22:58:55 38° N
Delta 168 4.2 23:02:59 20° SSE 23:03:25 20° SSE 23:05:51 10° ESE
Cosmos 2239 Rocket 4.5 22:59:09 10° NNW 23:05:04 53° W 23:11:00 10° SSW
SeaSat 1 2.3 23:01:08 10° SSE 23:06:00 74° WSW 23:10:53 10° NNW
Cosmos 2333 Rocket 3.8 23:03:16 10° N 23:08:25 35° ENE 23:13:32 10° SE
Cosmos 1867 4.3 23:08:25 31° WNW 23:08:54 32° WNW 23:13:43 10° N
Cosmos 2058 Rocket 4.4 23:07:38 10° SSE 23:11:45 42° E 23:15:54 10° NNE
ARGOS 3.1 23:08:20 10° NNE 23:13:40 84° ESE 23:19:02 10° S
Yuri Rocket 4.1 23:11:30 23° WNW 23:16:24 64° SSW 23:22:04 10° SE
H-2A R/B 2.9 23:12:28 10° NNW 23:17:11 32° WNW 23:18:56 26° WSW
Cosmos 2278 3.8 23:12:31 10° NNW 23:17:56 51° WSW 23:23:23 10° S
Cosmos 1758 Rocket 3.7 23:13:56 10° NNW 23:18:08 48° W 23:22:17 10° SSW
GPS 2-15 Rocket1 3.4 23:15:58 27° WNW 23:18:28 61° N 23:23:11 10° E
BREEZE-M DEB (TANK) 4.3 23:07:15 10° NW 23:18:59 55° WSW 23:23:16 10° SSE
NOSS 3-2 (A) 4.5 23:19:29 17° WNW 23:19:29 17° WNW 23:22:52 10° NNW
SL-16 R/B 2.1 23:14:24 10° NNW 23:19:59 64° WSW 23:25:34 10° S
Cosmos 374 Rocket 4.3 23:19:07 26° SW 23:21:14 63° WNW 23:25:35 10° NNE
Lacrosse 5 rocket 2.0 23:24:32 26° WNW 23:24:53 27° WNW 23:27:54 10° N
GPS 2-12 Rocket1 3.3 23:22:52 27° W 23:25:10 54° SSW 23:29:45 10° ESE
CZ-3 Stage 3 2.4 23:25:19 25° W 23:27:15 51° NNW 23:37:09 10° ENE
Cosmos 1726 Rocket 3.7 23:23:25 10° SSW 23:27:31 45° W 23:31:37 10° N
Cosmos 1812 3.4 23:28:42 26° W 23:28:47 26° W 23:31:46 10° NNW
Cosmos 1535 Rocket 4.4 23:24:41 10° N 23:30:55 88° W 23:37:03 10° S
Cosmos 1741 Rocket 3.9 23:27:46 10° SSW 23:33:00 70° WNW 23:38:13 10° N
ATLAS 5 CENTAUR R/B 3.6 23:06:39 15° W 23:33:00 81° N 23:39:39 10° E
OAO 3 Rocket 3.0 23:30:13 15° WNW 23:33:58 71° SW 23:38:38 10° SE
Atlas Centaur 2 3.5 23:30:51 15° WNW 23:35:11 34° NNW 23:41:38 10° NE
Meteor 2-13 Rocket 4.5 23:31:05 10° SSW 23:37:08 61° W 23:43:11 10° N
SWIFT 2.2 23:34:21 18° WNW 23:37:10 78° NNE 23:41:06 10° E
ARIANE 5 R/B 3.1 23:33:11 10° NNE 23:38:11 59° ESE 23:43:07 10° S
SME Rocket 4.0 23:36:35 10° NNW 23:39:54 28° WNW 23:43:53 10° SW
Cosmos-2242 4.4 23:39:42 10° SSE 23:43:38 42° E 23:47:35 10° NNE
IRS-1C 4.3 23:39:44 10° NNE 23:45:03 76° ESE 23:50:21 10° S
ISS -3.6 23:41:48 10° NW 23:45:11 76° NE 23:48:33 10° SE
Cosmos 1238 Rocket 4.0 23:41:13 10° S 23:46:03 64° E 23:51:28 10° NNE
Cosmos 1782 3.1 23:42:26 10° S 23:46:09 67° E 23:49:53 10° N
GP-B 3.1 23:44:30 10° S 23:48:50 60° W 23:53:10 10° NNW
Cosmos 1818 4.1 23:43:37 10° NNW 23:49:00 64° ENE 23:54:19 10° SSE
CZ-3 R/B 3.3 23:31:43 14° W 23:49:41 49° NNW 23:56:12 10° NE
FALCON 9 R/B 4.3 23:09:44 10° WSW 23:49:51 70° SSE 23:57:26 10° ENE
USA 306 3.5 23:48:44 14° W 23:49:51 16° WSW 23:51:40 10° SSW
Cosmos 468 Rocket 4.1 23:45:22 10° NNW 23:50:36 87° ENE 23:55:52 10° SSE
Cosmos 1378 2.5 23:48:24 10° S 23:51:30 87° WNW 23:54:35 10° N
JB-3 4.4 23:48:23 10° S 23:52:01 49° W 23:55:42 10° NNW
H-2A R/B 2.3 23:50:12 10° N 23:53:02 46° WNW 23:55:53 10° SSW
BREEZE-M R/B 3.0 23:50:24 11° WSW 23:53:12 29° NW 23:55:29 10° NNE
USA 238 DEB 3.4 23:47:40 10° SSW 23:53:40 76° WNW 23:59:54 10° NNE
NOAA 12 4.1 23:48:37 10° N 23:53:47 67° WNW 23:58:58 10° SSW
ASTRO E2 3.4 23:51:11 10° NW 23:54:16 37° NNE 23:57:19 10° E
